This demonstration page uses our WeatherBlox Daily Observations layout. Learn more.

Hourly Observations for May 10, 2015

Temp ( °F °C ) Dew Point ( °F °C ) Humidity (%) Winds ( mph kmh ) Pressure ( in mb ) Visibility ( mi km ) Precip ( " mm )
12:15 am 00:15 Cloudy 61 16 59 15 94 94 SSE 17 28 29.74 1007 10 16.09344 0 0
12:35 am 00:35 Cloudy 63 17 59 15 88 88 SE 18 30 29.74 1007 10 16.09344 0 0
12:55 am 00:55 Mostly Cloudy 61 16 59 15 94 94 SSE 15 24 29.74 1007 10 16.09344 0 0
1:15 am 01:15 Mostly Cloudy 61 16 59 15 94 94 SSE 14 22 29.74 1007 10 16.09344 0 0
1:35 am 01:35 Mostly Cloudy with Light Rain 61 16 59 15 94 94 SSE 15 24 29.74 1007 10 16.09344 0 0
1:55 am 01:55 Mostly Cloudy 61 16 59 15 94 94 ESE 20 31 29.68 1005 10 16.09344 0.01 0.254
2:15 am 02:15 Partly Cloudy 61 16 59 15 94 94 SE 13 20 29.68 1005 10 16.09344 0 0
2:35 am 02:35 Clear 59 15 57 14 94 94 SE 15 24 29.68 1005 10 16.09344 0 0
2:55 am 02:55 Clear 59 15 57 14 94 94 SE 14 22 29.68 1005 10 16.09344 0 0
3:15 am 03:15 Clear 57 14 55 13 94 94 SSE 12 19 29.68 1005 10 16.09344 0 0
3:35 am 03:35 Clear 57 14 55 13 94 94 SE 12 19 29.68 1005 10 16.09344 0 0
3:55 am 03:55 Clear 55 13 54 12 94 94 SSE 10 17 29.65 1004 10 16.09344 0 0
4:15 am 04:15 Clear 55 13 54 12 94 94 SSE 10 17 29.65 1004 10 16.09344 0 0
4:35 am 04:35 Clear 55 13 54 12 94 94 SSE 15 24 29.65 1004 10 16.09344 0 0
4:55 am 04:55 Clear 55 13 54 12 94 94 SSE 12 19 29.65 1004 10 16.09344 0 0
5:15 am 05:15 Mostly Cloudy 57 14 54 12 88 88 S 13 20 29.65 1004 10 16.09344 0 0
5:35 am 05:35 Cloudy 57 14 55 13 94 94 S 16 26 29.65 1004 10 16.09344 0 0
5:55 am 05:55 Cloudy 57 14 55 13 94 94 S 20 31 29.65 1004 10 16.09344 0 0
6:15 am 06:15 Mostly Cloudy 57 14 54 12 88 88 S 17 28 29.65 1004 10 16.09344 0 0
6:35 am 06:35 Mostly Cloudy 55 13 54 12 94 94 S 16 26 29.71 1006 10 16.09344 0 0
6:55 am 06:55 Mostly Cloudy 55 13 52 11 88 88 S 16 26 29.71 1006 10 16.09344 0 0
7:15 am 07:15 Mostly Cloudy 55 13 52 11 88 88 SSW 18 30 29.71 1006 10 16.09344 0 0
7:35 am 07:35 Mostly Cloudy 54 12 50 10 88 88 SW 22 35 29.74 1007 10 16.09344 0 0
7:55 am 07:55 Cloudy with Mist and Fog 46 8 45 7 93 93 SW 17 28 29.8 1009 5 8.04672 0 0
8:15 am 08:15 Cloudy with Mist and Fog 46 8 45 7 93 93 SW 16 26 29.8 1009 5 8.04672 0 0
8:35 am 08:35 Cloudy 46 8 43 6 87 87 SW 16 26 29.8 1009 10 16.09344 0 0
8:55 am 08:55 Cloudy 46 8 43 6 87 87 SW 24 39 29.8 1009 10 16.09344 0 0
9:15 am 09:15 Cloudy 46 8 43 6 87 87 WSW 18 30 29.8 1009 10 16.09344 0 0
9:35 am 09:35 Cloudy 46 8 43 6 87 87 WSW 17 28 29.8 1009 10 16.09344 0 0
9:55 am 09:55 Cloudy 46 8 43 6 87 87 W 22 35 29.77 1008 10 16.09344 0 0
10:15 am 10:15 Cloudy 48 9 43 6 82 82 W 16 26 29.77 1008 10 16.09344 0 0
10:35 am 10:35 Cloudy 48 9 45 7 87 87 W 22 35 29.77 1008 10 16.09344 0 0
10:55 am 10:55 Cloudy 48 9 43 6 82 82 W 21 33 29.77 1008 10 16.09344 0 0
11:15 am 11:15 Cloudy 48 9 43 6 82 82 WSW 18 30 29.8 1009 10 16.09344 0 0
11:35 am 11:35 Cloudy 50 10 43 6 76 76 W 20 31 29.8 1009 10 16.09344 0 0
11:55 am 11:55 Cloudy 50 10 43 6 76 76 W 20 31 29.8 1009 10 16.09344 0 0
12:15 pm 12:15 Cloudy 50 10 43 6 76 76 W 14 22 29.8 1009 10 16.09344 0 0
12:35 pm 12:35 Cloudy 50 10 41 5 71 71 WSW 15 24 29.8 1009 10 16.09344 0 0
12:55 pm 12:55 Cloudy 50 10 41 5 71 71 W 20 31 29.8 1009 10 16.09344 0 0
1:15 pm 13:15 Cloudy 50 10 41 5 71 71 W 16 26 29.8 1009 10 16.09344 0 0
1:35 pm 13:35 Cloudy 52 11 41 5 67 67 W 17 28 29.77 1008 10 16.09344 0 0
1:55 pm 13:55 Cloudy 52 11 41 5 67 67 W 17 28 29.77 1008 10 16.09344 0 0
2:15 pm 14:15 Cloudy 50 10 39 4 67 67 W 16 26 29.8 1009 10 16.09344 0 0
2:35 pm 14:35 Cloudy 50 10 39 4 67 67 W 20 31 29.8 1009 10 16.09344 0 0
2:55 pm 14:55 Cloudy 50 10 39 4 67 67 W 20 31 29.83 1010 10 16.09344 0 0
3:15 pm 15:15 Cloudy 50 10 39 4 67 67 W 20 31 29.83 1010 10 16.09344 0 0
3:35 pm 15:35 Cloudy 50 10 37 3 62 62 W 20 31 29.83 1010 10 16.09344 0 0
3:55 pm 15:55 Cloudy 48 9 37 3 66 66 W 23 37 29.83 1010 10 16.09344 0 0
4:15 pm 16:15 Cloudy with Nearby Thunderstorms 50 10 37 3 62 62 W 18 30 29.83 1010 10 16.09344 0 0
4:35 pm 16:35 Cloudy 50 10 36 2 58 58 W 24 39 29.83 1010 10 16.09344 0 0
4:55 pm 16:55 Cloudy 48 9 37 3 66 66 W 20 31 29.83 1010 10 16.09344 0 0
5:15 pm 17:15 Cloudy 48 9 36 2 62 62 W 22 35 29.83 1010 10 16.09344 0 0
5:35 pm 17:35 Cloudy 48 9 36 2 62 62 WNW 20 31 29.85 1011 10 16.09344 0 0
5:55 pm 17:55 Cloudy 48 9 36 2 62 62 WNW 21 33 29.85 1011 10 16.09344 0 0
6:15 pm 18:15 Cloudy 48 9 36 2 62 62 W 23 37 29.88 1012 10 16.09344 0 0
6:35 pm 18:35 Partly Cloudy 46 8 34 1 62 62 WNW 20 31 29.91 1013 10 16.09344 0 0
6:55 pm 18:55 Partly Cloudy 46 8 34 1 62 62 WNW 18 30 29.91 1013 10 16.09344 0 0
7:15 pm 19:15 Partly Cloudy 46 8 34 1 62 62 WNW 18 30 29.91 1013 10 16.09344 0 0
7:35 pm 19:35 Mostly Cloudy 46 8 34 1 62 62 WNW 18 30 29.91 1013 10 16.09344 0 0
7:55 pm 19:55 Cloudy 46 8 34 1 62 62 WNW 22 35 29.94 1014 10 16.09344 0 0
8:15 pm 20:15 Cloudy 45 7 32 0 61 61 WNW 22 35 29.94 1014 10 16.09344 0 0
8:35 pm 20:35 Partly Cloudy 45 7 32 0 61 61 WNW 23 37 29.94 1014 10 16.09344 0 0
8:55 pm 20:55 Clear 43 6 34 1 71 71 WNW 17 28 29.94 1014 10 16.09344 0 0
9:15 pm 21:15 Clear 43 6 32 0 66 66 WNW 22 35 29.97 1015 10 16.09344 0 0
9:35 pm 21:35 Clear 43 6 32 0 66 66 NW 23 37 29.97 1015 10 16.09344 0 0
9:55 pm 21:55 Clear 41 5 32 0 70 70 WNW 22 35 30.03 1017 10 16.09344 0 0
10:15 pm 22:15 Clear 41 5 30 -1 66 66 WNW 22 35 30.03 1017 10 16.09344 0 0
10:35 pm 22:35 Clear 39 4 32 0 75 75 WNW 15 24 30.03 1017 10 16.09344 0 0
10:55 pm 22:55 Clear 39 4 30 -1 70 70 NW 17 28 30.06 1018 10 16.09344 0 0
11:15 pm 23:15 Clear 39 4 32 0 75 75 WNW 17 28 30.06 1018 10 16.09344 0 0
11:35 pm 23:35 Clear 39 4 30 -1 70 70 WNW 21 33 30.03 1017 10 16.09344 0 0
11:55 pm 23:55 Clear 37 3 30 -1 75 75 WNW 21 33 30.06 1018 10 16.09344 0 0

Powered by AerisWeather